Location: Unspecified
(0.0000°N, 0.0000°E)
Time: 07:16:55
(UTC+00:00)

Vanguard 2 Rocket - Pass Details

Date: 13 December 2017
Orbit: 556 x 3326 km, 32.9° (Epoch: 15 January)

Event Time Altitude Azimuth Distance (km) Brightness Sun altitude
Rises 22:52:17 0° 317° (NW) 6,660 11.2 -62.3°
Enters shadow 22:53:17 - 319° (NW) 6,535 11.2 -62.4°
Reaches altitude 10° 22:58:23 10° 331° (NNW) 5,972 - -63.1°
Maximum altitude 23:12:19 23° 17° (NNE) 5,238 - -64.6°
Drops below altitude 10° 23:26:04 10° 62° (ENE) 5,951 - -65.8°
Sets 23:32:00 0° 76° (ENE) 6,640 - -66.2°
